User: anonymous   Login
Location: Unspecified
(0.0000°N, 0.0000°E)
Time: 12:51:23
(UTC+00:00)
Language:

Transit 2A Rocket - Orbit

View from above orbital plane
View from above orbital plane
View from above satellite
View from above satellite

Ground track
Ground track

The orbit data is extracted from the following two-line orbital elements,

1    47U 60007C   19047.96516049 -.00000062 +00000-0 +11502-4 0  9997
2    47 066.6668 015.7531 0234735 298.3519 059.4091 14.42020740064534
Epoch (UTC): 16 February 2019 23:09:49
Eccentricity: 0.0234735
inclination: 66.6668°
perigee height: 584 km
apogee height: 919 km
right ascension of ascending node: 15.7531°
argument of perigee: 298.3519°
revolutions per day: 14.42020740
mean anomaly at epoch: 59.4091°
orbit number at epoch: 6453

The dashed part of the orbit path shows where the satellite is in the earth's shadow,  

DLR